Regional Weather Roundup
Issued by NWS

Home | Current Version | Previous Version | Text Only | Print | Product List | Glossary Off
Versions: 1 2 3 4 5 6 7 8 9 10 11 12 13 14 15 16 17 18 19 20 21 22 23 24 25 26 27 28 29 30 31 32 33 34 35 36 37 38 39 40 41 42 43 44 45 46 47 48 49 50

000
ASUS43 KLOT 301110
RWRIL

ILLINOIS REGIONAL WEATHER ROUNDUP
NATIONAL WEATHER SERVICE CHICAGO/ROMEOVILLE IL
600 AM CDT TUE SEP 30 2014

NOTE: "FAIR" INDICATES FEW OR NO CLOUDS BELOW 12,000 FEET WITH NO
SIGNIFICANT WEATHER AND/OR OBSTRUCTIONS TO VISIBILITY.

* THESE STATIONS ARE NOT UNDER NWS QUALITY CONTROL. THEY ALSO MAY NOT
  REPORT WEATHER SUCH AS PRECIPITATION OR FOG.

ILZ001-002-007-009-015-016-024-301200-
NORTHWEST ILLINOIS

CITY           SKY/WX    TMP DP  RH WIND       PRES   REMARKS
MOLINE         NOT AVBL
SAVANNA*       CLOUDY    51  46  80 NE9       30.05S
$$

ILZ003-004-008-010-011-017-018-301200-
NORTH CENTRAL ILLINOIS

CITY           SKY/WX    TMP DP  RH WIND       PRES   REMARKS
ROCKFORD       DRIZZLE   49  45  86 E8        30.08S
FREEPORT*      CLOUDY    48  44  87 NE7       30.08S
ROCHELLE*      CLOUDY    49  44  83 NE10      30.06S
DE KALB*       CLOUDY    46  42  85 NE9       30.06S
PERU*          CLOUDY    53  48  83 NE10      30.04S
$$

ILZ005-006-012>014-019>023-301200-
NORTHEAST ILLINOIS

CITY           SKY/WX    TMP DP  RH WIND       PRES   REMARKS
CHICAGO-OHARE  DRIZZLE   48  46  93 N9        30.05R FOG
CHICAGO-MIDWAY MOCLDY    54  49  83 N13       30.03S
AURORA         CLOUDY    50  43  77 NE13      30.05S
LANSING*       CLOUDY    54  47  78 N9        30.02S
JOLIET*        CLOUDY    52  47  83 N6        30.03S
WAUKEGAN       CLOUDY    45  42  89 VRB6      30.05S
DUPAGE AIRPORT CLOUDY    49  44  83 N12       30.05S
KANKAKEE*      MOCLDY    54  49  83 N8        30.03S
WHEELING       CLOUDY    49  45  86 N10       30.07R
MORRIS*        CLOUDY    52  49  87 N3        30.03S
ROMEOVILLE*    CLOUDY    51  46  84 NE10      30.04S
NORTHERLY ISL    N/A     53  47  79 N14         N/A
$$

LMZ740>746-301200-
SOUTHERN LAKE MICHIGAN

STATION/POSITION SKY/WX   TEMP    WIND        PRES    VSBY  WAVE
                          AIR SEA DIR/SP/G                  HT/PER
                          (F)     (DEG/KT/KT) (MB)    (MI)  (FT/S)
SOUTHERN BUOY              51 61  350/ 16/ 21 1016.9R         7/ 8
WAUKEGAN HARBOR                   340/ 10/ 15   N/A
HARRISON CRIB              52      10/ 19/ 25   N/A
BURNHAM HARBOR             53      10/ 16/ 17   N/A
CALUMET HARBOR             54     360/ 11/ 14 1015.8S
MICHIGAN CITY              54     350/ 22/ 26   N/A
MICHIGAN CITY 6N           55 65   10/ 16/ 19   N/A           7/ 2
ST. JOSEPH                 54 62  360/ 17/ 23   N/A           7/ 2
$$

ILZ025>027-034>036-040-047-049-050-058-095>099-301200-
WEST-CENTRAL ILLINOIS

CITY           SKY/WX    TMP DP  RH WIND       PRES   REMARKS
QUINCY         CLEAR     57  55  93 NE7       29.96S FOG
GALESBURG*     CLOUDY    55  53  93 NE8       30.00S
MACOMB*        CLOUDY    57  56  98 NE9       30.02R FOG
JACKSONVILLE*  CLEAR     60  58  93 NE6       29.98S FOG
PITTSFIELD*    CLEAR     63  56  80 N3        29.97R
$$

ILZ028>032-037-038-041>044-048-051>054-059>061-301200-
CENTRAL ILLINOIS

CITY           SKY/WX    TMP DP  RH WIND       PRES   REMARKS
PONTIAC        CLOUDY    55  52  88 NE8       30.02R
BLOOMINGTON    CLOUDY    56  54  93 NE16        N/A
DECATUR        CLOUDY    58  57  97 NE7       29.98S FOG
PEORIA         CLOUDY    60  54  80 NE13      30.00S
LACON*         CLOUDY    55  51  86 E8        30.01S
LINCOLN*       CLOUDY    59  57  94 NE6       29.97S FOG
SPRINGFIELD    FOG       60  59  96 NE8       29.98S VSB 1/2
TAYLORVILLE    CLEAR     55  54  94 NE6       29.97S
$$

ILZ033-039-045-046-055>057-062-063-301200-
EAST-CENTRAL ILLINOIS

CITY           SKY/WX    TMP DP  RH WIND       PRES   REMARKS
DANVILLE*      CLOUDY    56  54  92 N9        29.97S
RANTOUL*       CLOUDY    58  54  84 NE9       30.00S
MATTOON        CLOUDY    58  57  97 N13       29.97R
PARIS*         CLOUDY    58  58 100 N5        29.98S FOG
$$

ILZ079-100>102-301200-
SOUTHWEST ILLINOIS

CITY           SKY/WX    TMP DP  RH WIND       PRES   REMARKS
ALTON          CLEAR     56  55  95 CALM      29.96S FOG
BELLEVILLE     CLEAR     57  57 100 N1        29.95S
CAHOKIA*       CLEAR     56  56 100 CALM      29.96S FOG
SPARTA*        CLEAR     60  56  86 CALM      29.97S
$$

ILZ064>066-069>071-074>076-080>082-084>086-088>090-092>094-301200-
SOUTH-CENTRAL ILLINOIS

CITY           SKY/WX    TMP DP  RH WIND       PRES   REMARKS
CARBONDALE     CLEAR     54  52  93 CALM      29.95S
CAIRO*         FOG       55  53  93 CALM      29.95R VSB 3/4
EFFINGHAM*     CLEAR     59  54  84 CALM      29.95S
MARION         FOG       55  55 100 CALM      29.96S VSB 1/4
CENTRALIA*     CLEAR     54  52  93 CALM      29.95S FOG
SALEM*           N/A     57  56  97 CALM      29.96R FOG
METROPOLIS*    CLEAR     52  52 100 CALM      29.94S FOG
$$

ILZ067-068-072-073-078-083-087-091-301200-
SOUTHEAST ILLINOIS

CITY           SKY/WX    TMP DP  RH WIND       PRES   REMARKS
LAWRENCEVILLE  CLEAR     57  55  93 CALM      29.94S
FLORA*         CLEAR     54  53  97 CALM      29.95S
FAIRFIELD*     CLEAR     54  52  94 CALM      29.94F FOG
HARRISBURG*    CLEAR     54  54 100 CALM      29.96S FOG
ROBINSON*      CLEAR     55  54  97 CALM      29.96R
CARMI*         CLEAR     54  54  99 CALM      29.94S FOG
$$

ABBREVIATIONS USED IN REMARKS
   TC - TEMPERATURE IN CELSIUS
  WCI - WIND CHILL INDEX
   HX - HEAT INDEX
  VSB - VISIBILITY
$$



USA.gov is the U.S. government's official web portal to all federal, state and local government web resources and services.